Location: Nijmegen RU
(51.8233°N, 354.1314°E)
Time: 14:02:57
(UTC+02:00)

Envisat - Pass Details

Date: 26 February 2019
Orbit: 764 x 766 km, 98.1° (Epoch: 16 October)

Event Time Altitude Azimuth Distance (km) Brightness Sun altitude
Rises 19:30:29 0° 155° (SSE) 3,220 6.0 -5.9°
Reaches altitude 10° 19:32:47 10° 152° (SSE) 2,298 5.3 -6.2°
Maximum altitude 19:37:48 67° 71° (ENE) 832 3.0 -7.0°
Drops below altitude 10° 19:42:52 10° 350° (N) 2,314 5.6 -7.8°
Sets 19:45:12 0° 348° (NNW) 3,245 6.4 -8.1°
